• In Hungary
  • List of Countries
  • For 7 days
  • Water Temperature
  • Satellite Maps
  • Weather Map
  • News
  • Weather Widgets
  • user-avatar
    Login

    Hourly Weather Kumakskoe

    Today, 25 September, Tuesday

    Time Temperature Precipitation Wind Pressure Humidity
    00:00 +18°C° 0 mm 4 mps 740 mmHg 54%
    01:00 +17°C° 0 mm 4 mps 740 mmHg 52%
    02:00 +17°C° 0 mm 4 mps 740 mmHg 49%
    03:00 +17°C° 0 mm 4 mps 740 mmHg 47%
    04:00 +17°C° 0 mm 4 mps 740 mmHg 50%
    05:00 +17°C° 0 mm 4 mps 740 mmHg 49%
    06:00 +17°C° 0 mm 4 mps 740 mmHg 49%
    07:00 +17°C° 0 mm 4 mps 741 mmHg 49%
    08:00 +17°C° 0 mm 5 mps 741 mmHg 46%
    09:00 +20°C° 0 mm 5 mps 741 mmHg 44%
    10:00 +21°C° 0 mm 5 mps 741 mmHg 41%
    11:00 +21°C° 0 mm 6 mps 741 mmHg 38%
    12:00 +22°C° 0 mm 6 mps 741 mmHg 36%
    13:00 +23°C° 0 mm 7 mps 741 mmHg 33%
    14:00 +23°C° 0 mm 6 mps 741 mmHg 32%
    15:00 +23°C° 0 mm 6 mps 741 mmHg 30%
    16:00 +23°C° 0 mm 5 mps 740 mmHg 28%
    17:00 +21°C° 0 mm 5 mps 740 mmHg 31%
    18:00 +20°C° 0 mm 5 mps 740 mmHg 33%
    19:00 +19°C° 0 mm 4 mps 740 mmHg 36%
    20:00 +18°C° 0 mm 4 mps 741 mmHg 36%
    21:00 +17°C° 0 mm 4 mps 741 mmHg 37%
    22:00 +17°C° 0 mm 4 mps 741 mmHg 38%
    23:00 +15°C° 0 mm 4 mps 741 mmHg 39%

    Tomorrow, 26 September, Wednesday

    Time Temperature Precipitation Wind Pressure Humidity
    00:00 +15°C° 0 mm 4 mps 741 mmHg 40%
    01:00 +14°C° 0 mm 4 mps 741 mmHg 42%
    02:00 +14°C° 0 mm 4 mps 741 mmHg 43%
    03:00 +13°C° 0 mm 4 mps 741 mmHg 45%
    04:00 +13°C° 0 mm 4 mps 741 mmHg 47%
    05:00 +13°C° 0 mm 4 mps 741 mmHg 48%
    06:00 +13°C° 0 mm 4 mps 741 mmHg 48%
    07:00 +13°C° 0 mm 4 mps 742 mmHg 49%
    08:00 +15°C° 0 mm 4 mps 742 mmHg 44%
    09:00 +17°C° 0 mm 5 mps 742 mmHg 39%
    10:00 +20°C° 0 mm 5 mps 742 mmHg 34%
    11:00 +21°C° 0 mm 5 mps 742 mmHg 32%
    12:00 +22°C° 0 mm 5 mps 742 mmHg 31%
    13:00 +22°C° 0 mm 6 mps 742 mmHg 29%
    14:00 +22°C° 0 mm 5 mps 741 mmHg 29%
    15:00 +23°C° 0 mm 5 mps 741 mmHg 28%
    16:00 +23°C° 0 mm 5 mps 741 mmHg 28%
    17:00 +21°C° 0 mm 4 mps 741 mmHg 30%
    18:00 +20°C° 0 mm 4 mps 741 mmHg 33%
    19:00 +19°C° 0 mm 3 mps 741 mmHg 35%
    20:00 +18°C° 0 mm 3 mps 741 mmHg 36%
    21:00 +18°C° 0 mm 3 mps 741 mmHg 36%
    22:00 +17°C° 0 mm 4 mps 741 mmHg 37%
    23:00 +17°C° 0 mm 4 mps 741 mmHg 38%

    Day after tomorrow, 27 September, Thursday

    Time Temperature Precipitation Wind Pressure Humidity
    00:00 +17°C° 0 mm 4 mps 741 mmHg 39%
    01:00 +15°C° 0 mm 4 mps 740 mmHg 40%
    02:00 +15°C° 0 mm 4 mps 740 mmHg 40%
    03:00 +14°C° 0 mm 4 mps 740 mmHg 41%
    04:00 +14°C° 0 mm 4 mps 740 mmHg 42%
    05:00 +14°C° 0 mm 4 mps 739 mmHg 43%
    06:00 +14°C° 0 mm 4 mps 739 mmHg 43%
    07:00 +14°C° 0 mm 4 mps 739 mmHg 43%
    08:00 +16°C° 0 mm 5 mps 739 mmHg 39%
    09:00 +19°C° 0 mm 6 mps 738 mmHg 34%
    10:00 +20°C° 0 mm 6 mps 738 mmHg 30%
    11:00 +21°C° 0 mm 7 mps 738 mmHg 29%
    12:00 +22°C° 0 mm 7 mps 738 mmHg 28%
    13:00 +22°C° 0 mm 7 mps 737 mmHg 27%
    14:00 +21°C° 0 mm 7 mps 737 mmHg 34%
    15:00 +20°C° 0 mm 7 mps 737 mmHg 41%
    16:00 +18°C° 0 mm 7 mps 736 mmHg 48%
    17:00 +16°C° 0.7 mm 6 mps 736 mmHg 58%
    18:00 +14°C° 0.7 mm 5 mps 736 mmHg 68%
    19:00 +12°C° 0.7 mm 5 mps 736 mmHg 78%
    20:00 +10°C° 0.1 mm 5 mps 736 mmHg 78%
    21:00 +10°C° 0.1 mm 5 mps 736 mmHg 78%
    22:00 +9°C° 0.1 mm 5 mps 736 mmHg 78%
    23:00 +9°C° 0 mm 5 mps 736 mmHg 78%

    28 September, Friday

    Time Temperature Precipitation Wind Pressure Humidity
    00:00 +8°C° 0 mm 4 mps 736 mmHg 78%
    01:00 +8°C° 0 mm 4 mps 736 mmHg 77%
    02:00 +8°C° 0 mm 4 mps 736 mmHg 76%
    03:00 +8°C° 0 mm 5 mps 736 mmHg 74%
    04:00 +8°C° 0 mm 5 mps 736 mmHg 73%
    05:00 +8°C° 0 mm 6 mps 735 mmHg 68%
    06:00 +9°C° 0 mm 6 mps 735 mmHg 62%
    07:00 +9°C° 0 mm 7 mps 735 mmHg 57%
    08:00 +10°C° 0 mm 8 mps 735 mmHg 54%
    09:00 +10°C° 0 mm 9 mps 735 mmHg 51%
    10:00 +11°C° 0 mm 10 mps 735 mmHg 49%
    11:00 +11°C° 0 mm 9 mps 736 mmHg 48%
    12:00 +12°C° 0 mm 9 mps 736 mmHg 48%
    13:00 +12°C° 0 mm 8 mps 736 mmHg 48%
    14:00 +12°C° 0 mm 8 mps 736 mmHg 46%
    15:00 +14°C° 0 mm 7 mps 737 mmHg 44%
    16:00 +14°C° 0 mm 7 mps 737 mmHg 43%
    17:00 +13°C° 0 mm 6 mps 737 mmHg 46%
    18:00 +12°C° 0 mm 4 mps 738 mmHg 50%
    19:00 +11°C° 0 mm 3 mps 738 mmHg 53%
    20:00 +11°C° 0 mm 3 mps 738 mmHg 55%
    21:00 +10°C° 0 mm 3 mps 739 mmHg 56%
    22:00 +10°C° 0 mm 3 mps 739 mmHg 57%
    23:00 +10°C° 0 mm 3 mps 739 mmHg 58%

    29 September, Saturday

    Time Temperature Precipitation Wind Pressure Humidity
    00:00 +8°C° 0 mm 4 mps 739 mmHg 59%
    01:00 +8°C° 0 mm 4 mps 739 mmHg 60%
    02:00 +8°C° 0 mm 4 mps 739 mmHg 61%
    03:00 +8°C° 0 mm 4 mps 739 mmHg 61%
    04:00 +8°C° 0 mm 5 mps 739 mmHg 62%
    05:00 +8°C° 0 mm 5 mps 740 mmHg 62%
    06:00 +8°C° 0 mm 5 mps 740 mmHg 63%
    07:00 +8°C° 0 mm 6 mps 740 mmHg 63%
    08:00 +10°C° 0 mm 6 mps 740 mmHg 58%
    09:00 +12°C° 0 mm 7 mps 740 mmHg 52%
    10:00 +15°C° 0 mm 7 mps 740 mmHg 47%
    11:00 +16°C° 0 mm 7 mps 740 mmHg 45%
    12:00 +17°C° 0 mm 7 mps 740 mmHg 43%
    13:00 +18°C° 0 mm 7 mps 740 mmHg 41%
    14:00 +18°C° 0 mm 7 mps 740 mmHg 41%
    15:00 +19°C° 0 mm 6 mps 740 mmHg 41%
    16:00 +19°C° 0 mm 6 mps 740 mmHg 41%
    17:00 +17°C° 0 mm 5 mps 740 mmHg 45%
    18:00 +17°C° 0 mm 4 mps 740 mmHg 48%
    19:00 +16°C° 0 mm 3 mps 740 mmHg 52%
    20:00 +14°C° 0 mm 3 mps 740 mmHg 53%
    21:00 +14°C° 0 mm 3 mps 740 mmHg 54%
    22:00 +13°C° 0 mm 3 mps 740 mmHg 55%
    23:00 +13°C° 0 mm 3 mps 740 mmHg 56%

    30 September, Sunday

    Time Temperature Precipitation Wind Pressure Humidity
    00:00 +13°C° 0 mm 3 mps 740 mmHg 57%
    01:00 +12°C° 0 mm 3 mps 740 mmHg 58%
    02:00 +12°C° 0 mm 3 mps 740 mmHg 59%
    03:00 +12°C° 0 mm 3 mps 740 mmHg 60%
    04:00 +12°C° 0 mm 3 mps 740 mmHg 60%
    05:00 +12°C° 0 mm 3 mps 740 mmHg 60%
    06:00 +12°C° 0 mm 3 mps 740 mmHg 59%
    07:00 +12°C° 0 mm 3 mps 740 mmHg 58%
    08:00 +14°C° 0 mm 3 mps 740 mmHg 52%
    09:00 +15°C° 0 mm 4 mps 740 mmHg 46%
    10:00 +18°C° 0 mm 4 mps 740 mmHg 39%
    11:00 +19°C° 0 mm 5 mps 739 mmHg 37%
    12:00 +20°C° 0 mm 5 mps 739 mmHg 35%
    13:00 +21°C° 0 mm 5 mps 739 mmHg 33%
    14:00 +21°C° 0 mm 5 mps 739 mmHg 34%
    15:00 +20°C° 0 mm 5 mps 739 mmHg 35%
    16:00 +20°C° 0 mm 5 mps 738 mmHg 35%
    17:00 +19°C° 0 mm 4 mps 739 mmHg 40%
    18:00 +18°C° 0 mm 4 mps 739 mmHg 44%
    19:00 +16°C° 0 mm 3 mps 739 mmHg 49%
    20:00 +16°C° 0 mm 3 mps 739 mmHg 55%
    21:00 +14°C° 0 mm 3 mps 739 mmHg 61%
    22:00 +13°C° 0 mm 3 mps 739 mmHg 66%
    23:00 +12°C° 0 mm 3 mps 740 mmHg 71%
    Show more